This demonstration page uses our WeatherBlox Daily Observations layout. Learn more.

Left ArrowRight Arrow

38.83388, -104.82136

Hourly Observations for January 21, 2021

Temp ( °F °C ) Dew Point ( °F °C ) Humidity (%) Winds ( mph kmh ) Pressure ( in mb ) Visibility ( mi km ) Precip ( " mm )
12:54 am 00:54 Clear 32 0 12 -11.1 43 43 NW 3 6 29.97 1015 10 16 0.00 0.00
1:54 am 01:54 Clear 32 0 12 -11.1 43 43 Calm 29.95 1014 10 16 0.00 0.00
2:54 am 02:54 Clear 25 -3.9 13 -10.6 60 60 NNE 9 15 29.96 1015 10 16 0.00 0.00
3:54 am 03:54 Clear 27 -2.8 12 -11.1 53 53 N 5 7 29.94 1014 10 16 0.00 0.00
4:54 am 04:54 Clear 28 -2.2 12 -11.1 51 51 N 8 13 29.95 1014 10 16 0.00 0.00
5:54 am 05:54 Clear 24 -4.4 12 -11.1 60 60 NNE 9 15 29.99 1016 10 16 0.00 0.00
6:54 am 06:54 Mostly Clear 25 -3.9 13 -10.6 60 60 N 8 13 30.02 1017 10 16 0.00 0.00
7:54 am 07:54 Mostly Sunny 30 -1.1 15 -9.4 54 54 NNE 7 11 30.01 1016 10 16 0.00 0.00
8:54 am 08:54 Partly Cloudy 44 6.7 17 -8.3 34 34 Calm 29.96 1015 10 16 0.00 0.00
9:54 am 09:54 Partly Cloudy 47 8.3 16 -8.9 29 29 Calm 29.98 1015 10 16 0.00 0.00
10:54 am 10:54 Partly Cloudy 50 10 16 -8.9 26 26 VRB 3 6 29.96 1014 10 16 0.00 0.00
11:54 am 11:54 Partly Cloudy 50 10 15 -9.4 25 25 VRB 6 9 29.95 1014 10 16 0.00 0.00
12:54 pm 12:54 Partly Cloudy 51 10.6 14 -10 23 23 SSE 8 13 29.91 1013 10 16 0.00 0.00
1:54 pm 13:54 Partly Cloudy 50 10 15 -9.4 25 25 SE 17 28 29.90 1012 10 16 0.00 0.00
2:54 pm 14:54 Partly Cloudy 49 9.4 16 -8.9 27 27 ESE 15 24 29.95 1014 10 16 0.00 0.00
3:54 pm 15:54 Partly Cloudy 46 7.8 16 -8.9 30 30 ESE 16 26 29.96 1015 10 16 0.00 0.00
4:54 pm 16:54 Partly Cloudy 42 5.6 16 -8.9 35 35 SE 10 17 30.00 1016 10 16 0.00 0.00
5:54 pm 17:54 Partly Cloudy 39 3.9 16 -8.9 39 39 SE 9 15 30.04 1017 10 16 0.00 0.00
6:54 pm 18:54 Mostly Cloudy 38 3.3 17 -8.3 43 43 ESE 10 17 30.06 1018 10 16 0.00 0.00
7:54 pm 19:54 Mostly Clear 34 1.1 16 -8.9 48 48 SSW 8 13 30.07 1018 10 16 0.00 0.00
8:54 pm 20:54 Mostly Clear 32 0 16 -8.9 52 52 SSW 8 13 30.01 1016 10 16 0.00 0.00
9:54 pm 21:54 Mostly Clear 32 0 15 -9.4 50 50 SE 10 17 30.00 1016 10 16 0.00 0.00
10:54 pm 22:54 Clear 31 -0.6 14 -10 49 49 SSE 12 19 30.00 1016 10 16 0.00 0.00
11:54 pm 23:54 Clear 29 -1.7 13 -10.6 51 51 SSE 7 11 30.00 1016 10 16 0.00 0.00

Powered by AerisWeather